sat.trackr.live / text

‹ back to catalog

STARLINK-31349

NORAD 59317 · 2024-056X

PAYLOAD ACTIVE UNKNOWN

§ Identity

Operator
Country
US
Launch date
2024-03-24
Launch site
AFETR
Launch vehicle
Mass (kg)
RCS (m²)

Purposes: comms

External: N2YO · Heavens-Above · Gunter

§ Orbital elements

Epoch: 2026-09-20T04:54:03.258432Z

Period
94.27 min
Inclination
43.0004°
Eccentricity
0.0001250
Mean motion
15.27578219 rev/d
Perigee alt
482.2 km
Apogee alt
483.9 km
Semi-major
6,861.2 km
B*
2.9404e-5
RAAN
212.1191°
Arg perigee
270.0389°
Mean anomaly
90.0319°
Rev number
14,097

§ Raw data

STARLINK-313491 59317U 24056X   26263.20420438  .00000547  00000+0  29404-4 0  99922 59317  43.0004 212.1191 0001250 270.0389  90.0319 15.27578219140972

JSON: /api/v1/satellites/59317 · /tle

For live sub-satellite position, see the globe view (requires WebGL).

§ Visibility from observer

Set your observer location to see the next 7 days of passes ≥ 10°. The values pass through the URL so the page stays shareable.

No JS? Fill the form by hand. The geolocation button needs JavaScript.